Location: Mount Graham
(32.7016°N, 109.8912°W)
Time: 07:51:08
(UTC-07:00)

Cosmos 1340 - Visible Passes

Search period start: 27 June 2016 00:00
Search period end: 07 July 2016 00:00
Orbit: 509 x 512 km, 81.2° (Epoch: 26 June)

Date Brightness Start Highest point End Pass type
(mag) Time Alt. Az. Time Alt. Az. Time Alt. Az.
28 Jun 6.5 04:45:14 10° ENE 04:46:13 11° ENE 04:47:11 10° E visible
04 Jul 4.1 04:37:53 10° N 04:41:32 43° E 04:45:09 10° SSE visible
05 Jul 4.6 04:21:16 10° NNE 04:24:44 33° ENE 04:28:11 10° SE visible
06 Jul 5.0 04:04:42 10° NNE 04:07:56 26° ENE 04:11:08 10° SE visible
